Location: Finnegan
(51.1333°N, 112.0833°W)
Time: 01:10:22
(UTC+00:00)

Tiangong - Visible Passes

Search period start: 27 November 2022 00:00
Search period end: 07 December 2022 00:00
Orbit: 387 x 394 km, 41.5° (Epoch: 26 November)

Date Brightness Start Highest point End Pass type
(mag) Time Alt. Az. Time Alt. Az. Time Alt. Az.
03 Dec 0.8 02:04:04 10° SSW 02:04:39 12° SSW 02:04:39 12° SSW visible
04 Dec 0.5 01:06:40 10° SSW 01:08:10 13° SSE 01:09:26 11° SE visible
05 Dec 0.7 00:09:50 10° S 00:10:26 10° SSE 00:11:02 10° SSE visible
05 Dec 0.4 01:44:39 10° SW 01:46:31 15° S 01:46:31 15° S visible
06 Dec 0.5 00:46:56 10° SSW 00:48:47 14° S 00:50:37 10° SE visible
06 Dec 1.1 02:23:28 10° SW 02:23:35 10° SW 02:23:35 10° SW visible
